When you browse on this site, cookies collect data to enhance your experience and personalize the content and advertising you see.
Visit our Privacy Policy to learn more. By continuing to use the site, you agree to this use of cookies and data.
  • en Suisse
  • Liste des pays
  • À 7 jours
  • Température de l'eau
  • Carte météo
  • Widgets météo
  • user-avatar
    Se connecter

    Météo par heure à Brégence

    Ce jour, 5 Avril, Dimanche

    Heure Température Précipitation Vent Pression Humidité
    00:00 -2°C° 0 mm 2 m/s 648 mmHg 78%
    01:00 -4°C° 0 mm 3 m/s 648 mmHg 75%
    02:00 -3°C° 0 mm 2 m/s 648 mmHg 75%
    03:00 -3°C° 0 mm 2 m/s 647 mmHg 75%
    04:00 -4°C° 0 mm 2 m/s 647 mmHg 75%
    05:00 -3°C° 0 mm 2 m/s 647 mmHg 75%
    06:00 -3°C° 0 mm 2 m/s 648 mmHg 74%
    07:00 -2°C° 0 mm 2 m/s 648 mmHg 73%
    08:00 +2°C° 0 mm 2 m/s 649 mmHg 68%
    09:00 +5°C° 0 mm 1 m/s 649 mmHg 63%
    10:00 +8°C° 0 mm 1 m/s 650 mmHg 58%
    11:00 +9°C° 0 mm 1 m/s 650 mmHg 54%
    12:00 +11°C° 0 mm 1 m/s 650 mmHg 51%
    13:00 +12°C° 0 mm 1 m/s 651 mmHg 46%
    14:00 +12°C° 0 mm 1 m/s 650 mmHg 47%
    15:00 +12°C° 0 mm 1 m/s 650 mmHg 48%
    16:00 +12°C° 0 mm 1 m/s 649 mmHg 49%
    17:00 +10°C° 0 mm 1 m/s 649 mmHg 60%
    18:00 +7°C° 0 mm 1 m/s 648 mmHg 70%
    19:00 +4°C° 0 mm 2 m/s 648 mmHg 81%
    20:00 +3°C° 0 mm 2 m/s 648 mmHg 80%
    21:00 +2°C° 0 mm 2 m/s 648 mmHg 79%
    22:00 0°C° 0 mm 3 m/s 648 mmHg 78%
    23:00 -1°C° 0 mm 3 m/s 648 mmHg 76%

    Demain, 6 Avril, Lundi

    Heure Température Précipitation Vent Pression Humidité
    00:00 -1°C° 0 mm 3 m/s 648 mmHg 74%
    01:00 -1°C° 0 mm 3 m/s 648 mmHg 73%
    02:00 -2°C° 0 mm 3 m/s 648 mmHg 73%
    03:00 -2°C° 0 mm 3 m/s 648 mmHg 72%
    04:00 -2°C° 0 mm 3 m/s 648 mmHg 72%
    05:00 -2°C° 0 mm 2 m/s 649 mmHg 71%
    06:00 -1°C° 0 mm 2 m/s 649 mmHg 69%
    07:00 -1°C° 0 mm 2 m/s 649 mmHg 68%
    08:00 +3°C° 0 mm 2 m/s 650 mmHg 61%
    09:00 +7°C° 0 mm 1 m/s 651 mmHg 54%
    10:00 +10°C° 0 mm 1 m/s 652 mmHg 47%
    11:00 +11°C° 0 mm 1 m/s 652 mmHg 45%
    12:00 +12°C° 0 mm 1 m/s 652 mmHg 43%
    13:00 +13°C° 0 mm 1 m/s 652 mmHg 41%
    14:00 +13°C° 0 mm 1 m/s 652 mmHg 43%
    15:00 +13°C° 0 mm 1 m/s 652 mmHg 45%
    16:00 +13°C° 0 mm 1 m/s 653 mmHg 47%
    17:00 +10°C° 0 mm 1 m/s 652 mmHg 57%
    18:00 +8°C° 0 mm 1 m/s 651 mmHg 67%
    19:00 +4°C° 0 mm 0 m/s 650 mmHg 77%
    20:00 +5°C° 0 mm 1 m/s 651 mmHg 77%
    21:00 +4°C° 0 mm 1 m/s 651 mmHg 78%
    22:00 +4°C° 0 mm 1 m/s 652 mmHg 78%
    23:00 +3°C° 0 mm 1 m/s 652 mmHg 77%

    Après-demain, 7 Avril, Mardi

    Heure Température Précipitation Vent Pression Humidité
    00:00 +3°C° 0 mm 1 m/s 652 mmHg 77%
    01:00 +3°C° 0 mm 1 m/s 652 mmHg 76%
    02:00 +2°C° 0 mm 1 m/s 652 mmHg 76%
    03:00 +2°C° 0 mm 1 m/s 652 mmHg 77%
    04:00 +2°C° 0 mm 1 m/s 652 mmHg 77%
    05:00 +2°C° 0 mm 1 m/s 652 mmHg 75%
    06:00 +3°C° 0 mm 1 m/s 652 mmHg 74%
    07:00 +3°C° 0 mm 1 m/s 652 mmHg 73%
    08:00 +6°C° 0 mm 1 m/s 653 mmHg 68%
    09:00 +8°C° 0 mm 1 m/s 653 mmHg 64%
    10:00 +10°C° 0 mm 1 m/s 654 mmHg 59%
    11:00 +11°C° 0 mm 1 m/s 654 mmHg 56%
    12:00 +12°C° 0 mm 1 m/s 654 mmHg 54%
    13:00 +14°C° 0 mm 2 m/s 654 mmHg 51%
    14:00 +14°C° 0 mm 2 m/s 654 mmHg 52%
    15:00 +14°C° 0 mm 2 m/s 654 mmHg 52%
    16:00 +14°C° 0 mm 2 m/s 653 mmHg 53%
    17:00 +10°C° 0 mm 2 m/s 653 mmHg 64%
    18:00 +9°C° 0 mm 1 m/s 652 mmHg 74%
    19:00 +7°C° 0 mm 1 m/s 651 mmHg 85%
    20:00 +6°C° 0 mm 1 m/s 651 mmHg 84%
    21:00 +6°C° 0 mm 1 m/s 651 mmHg 84%
    22:00 +4°C° 0 mm 2 m/s 652 mmHg 83%
    23:00 +3°C° 0 mm 2 m/s 651 mmHg 81%

    8 Avril, Mercredi

    Heure Température Précipitation Vent Pression Humidité
    00:00 +3°C° 0 mm 2 m/s 651 mmHg 79%
    01:00 +3°C° 0 mm 2 m/s 651 mmHg 77%
    02:00 +2°C° 0 mm 2 m/s 651 mmHg 75%
    03:00 +3°C° 0 mm 1 m/s 651 mmHg 73%
    04:00 +3°C° 0 mm 1 m/s 651 mmHg 71%
    05:00 +3°C° 0 mm 1 m/s 651 mmHg 69%
    06:00 +4°C° 0 mm 1 m/s 651 mmHg 67%
    07:00 +4°C° 0 mm 1 m/s 651 mmHg 65%
    08:00 +7°C° 0 mm 1 m/s 651 mmHg 61%
    09:00 +9°C° 0 mm 1 m/s 652 mmHg 56%
    10:00 +11°C° 0 mm 1 m/s 652 mmHg 52%
    11:00 +12°C° 0 mm 1 m/s 652 mmHg 52%
    12:00 +13°C° 0 mm 1 m/s 652 mmHg 53%
    13:00 +13°C° 0 mm 1 m/s 652 mmHg 53%
    14:00 +13°C° 0.1 mm 1 m/s 652 mmHg 55%
    15:00 +13°C° 0.1 mm 1 m/s 652 mmHg 57%
    16:00 +13°C° 0.1 mm 1 m/s 651 mmHg 59%
    17:00 +11°C° 0.1 mm 1 m/s 651 mmHg 67%
    18:00 +9°C° 0.1 mm 1 m/s 650 mmHg 75%
    19:00 +6°C° 0.1 mm 0 m/s 649 mmHg 82%
    20:00 +7°C° 0 mm 1 m/s 649 mmHg 84%
    21:00 +6°C° 0 mm 1 m/s 649 mmHg 85%
    22:00 +5°C° 0 mm 1 m/s 650 mmHg 87%
    23:00 +5°C° 0 mm 1 m/s 649 mmHg 87%

    9 Avril, Jeudi

    Heure Température Précipitation Vent Pression Humidité
    00:00 +5°C° 0 mm 1 m/s 649 mmHg 88%
    01:00 +4°C° 0 mm 1 m/s 649 mmHg 88%
    02:00 +4°C° 0 mm 1 m/s 649 mmHg 89%
    03:00 +4°C° 0 mm 1 m/s 649 mmHg 89%
    04:00 +4°C° 0 mm 1 m/s 649 mmHg 89%
    05:00 +4°C° 0 mm 1 m/s 649 mmHg 88%
    06:00 +4°C° 0 mm 0 m/s 649 mmHg 86%
    07:00 +5°C° 0 mm 0 m/s 649 mmHg 85%
    08:00 +6°C° 0.1 mm 0 m/s 650 mmHg 81%
    09:00 +8°C° 0.1 mm 1 m/s 650 mmHg 78%
    10:00 +9°C° 0.1 mm 1 m/s 650 mmHg 74%
    11:00 +11°C° 0.2 mm 1 m/s 650 mmHg 70%
    12:00 +12°C° 0.2 mm 1 m/s 650 mmHg 66%
    13:00 +13°C° 0.2 mm 2 m/s 650 mmHg 62%
    14:00 +13°C° 0.3 mm 2 m/s 650 mmHg 61%
    15:00 +13°C° 0.3 mm 2 m/s 650 mmHg 61%
    16:00 +13°C° 0.3 mm 2 m/s 650 mmHg 61%
    17:00 +11°C° 0.1 mm 1 m/s 649 mmHg 69%
    18:00 +9°C° 0.1 mm 1 m/s 649 mmHg 77%
    19:00 +7°C° 0.1 mm 1 m/s 648 mmHg 86%
    20:00 +6°C° 0 mm 1 m/s 648 mmHg 87%
    21:00 +5°C° 0 mm 1 m/s 648 mmHg 89%
    22:00 +5°C° 0 mm 1 m/s 648 mmHg 91%
    23:00 +4°C° 0 mm 1 m/s 648 mmHg 91%

    10 Avril, Vendredi

    Heure Température Précipitation Vent Pression Humidité
    00:00 +4°C° 0 mm 1 m/s 648 mmHg 91%
    01:00 +4°C° 0 mm 1 m/s 648 mmHg 91%
    02:00 +3°C° 0 mm 1 m/s 648 mmHg 91%
    03:00 +3°C° 0 mm 1 m/s 648 mmHg 91%
    04:00 +3°C° 0 mm 1 m/s 648 mmHg 91%
    05:00 +4°C° 0 mm 1 m/s 648 mmHg 89%
    06:00 +4°C° 0 mm 1 m/s 649 mmHg 88%
    07:00 +5°C° 0 mm 1 m/s 649 mmHg 86%
    08:00 +7°C° 0 mm 1 m/s 650 mmHg 78%
    09:00 +9°C° 0 mm 1 m/s 650 mmHg 70%
    10:00 +12°C° 0 mm 1 m/s 651 mmHg 62%
    11:00 +13°C° 0 mm 1 m/s 651 mmHg 58%
    12:00 +14°C° 0 mm 1 m/s 651 mmHg 54%
    13:00 +14°C° 0 mm 2 m/s 651 mmHg 50%
    14:00 +14°C° 0 mm 2 m/s 651 mmHg 51%
    15:00 +14°C° 0 mm 2 m/s 650 mmHg 52%
    16:00 +14°C° 0 mm 2 m/s 650 mmHg 53%
    17:00 +12°C° 0.1 mm 1 m/s 649 mmHg 63%
    18:00 +10°C° 0.1 mm 1 m/s 649 mmHg 72%
    19:00 +7°C° 0.1 mm 0 m/s 648 mmHg 82%
    20:00 +7°C° 0 mm 1 m/s 648 mmHg 83%
    21:00 +7°C° 0 mm 1 m/s 648 mmHg 84%
    22:00 +6°C° 0 mm 1 m/s 648 mmHg 85%
    23:00 +6°C° 0 mm 1 m/s 648 mmHg 85%
    Voir plus